 day,  time,  air_temp(C),  RH(%),  ground_temp10cm(C),  ground_temp20cm(C),  ground_temp40cm(C),  precipitation(mm/h),  Solar_Radiation(MJ/m2h),  lack, 
 04/01/01, 01:00,  -2.2,  94,   1.5,   2.2,   3.6,   0.0,  0.00, 
 04/01/01, 02:00,  -2.6,  94,   1.5,   2.2,   3.6,   0.5,  0.00, 
 04/01/01, 03:00,  -2.8,  95,   1.5,   2.2,   3.6,   0.0,  0.00, 
 04/01/01, 04:00,  -2.6,  93,   1.5,   2.2,   3.6,   0.5,  0.00, 
 04/01/01, 05:00,  -2.8,  95,   1.5,   2.2,   3.6,   0.0,  0.00, 
 04/01/01, 06:00,  -3.0,  99,   1.5,   2.2,   3.6,   0.0,  0.00, 
 04/01/01, 07:00,  -3.3,  98,   1.5,   2.2,   3.6,   0.0,  0.00, 
 04/01/01, 08:00,  -3.1,  98,   1.5,   2.2,   3.6,   0.0,  0.01, 
 04/01/01, 09:00,  -2.1,  97,   1.5,   2.2,   3.6,   0.0,  0.58, 
 04/01/01, 10:00,  -1.7,  83,   1.5,   2.2,   3.6,   0.0,  0.56, 
 04/01/01, 11:00,  -0.7,  70,   1.5,   2.2,   3.6,   0.0,  1.68, 
 04/01/01, 12:00,   0.4,  65,   1.6,   2.3,   3.7,   0.5,  2.10, 
 04/01/01, 13:00,   0.8,  67,   1.6,   2.2,   3.7,   0.0,  1.78, 
 04/01/01, 14:00,   1.7,  69,   1.6,   2.2,   3.7,   0.0,  1.64, 
 04/01/01, 15:00,   0.8,  71,   1.6,   2.2,   3.7,   0.0,  0.60, 
 04/01/01, 16:00,   0.3,  74,   1.6,   2.2,   3.7,   0.0,  0.21, 
 04/01/01, 17:00,  -0.5,  78,   1.5,   2.2,   3.6,   0.0,  0.02, 
 04/01/01, 18:00,  -1.1,  87,   1.5,   2.2,   3.6,   0.0,  0.00, 
 04/01/01, 19:00,  -1.2,  88,   1.5,   2.2,   3.7,   0.0,  0.00, 
 04/01/01, 20:00,  -1.5,  89,   1.5,   2.2,   3.6,   0.0,  0.00, 
 04/01/01, 21:00,  -1.9,  89,   1.5,   2.2,   3.6,   0.0,  0.00, 
 04/01/01, 22:00,  -1.7,  87,   1.5,   2.2,   3.7,   0.0,  0.00, 
 04/01/01, 23:00,  -1.9,  91,   1.5,   2.2,   3.6,   0.0,  0.00, 
 04/01/02, 00:00,  -1.4,  88,   1.5,   2.2,   3.5,   0.0,  0.00, 
 04/01/02, 01:00,  -1.4,  90,   1.5,   2.2,   3.5,   0.0,  0.00, 
 04/01/02, 02:00,  -1.6,  93,   1.5,   2.2,   3.5,   0.0,  0.00, 
 04/01/02, 03:00,  -1.5,  93,   1.5,   2.2,   3.5,   0.0,  0.00, 
 04/01/02, 04:00,  -0.9,  80,   1.5,   2.2,   3.5,   0.0,  0.00, 
 04/01/02, 05:00,  -1.5,  84,   1.5,   2.2,   3.5,   0.0,  0.00, 
 04/01/02, 06:00,  -1.4,  85,   1.5,   2.2,   3.5,   0.0,  0.00, 
 04/01/02, 07:00,  -1.4,  85,   1.5,   2.2,   3.5,   0.0,  0.00, 
 04/01/02, 08:00,  -1.3,  86,   1.5,   2.2,   3.5,   0.0,  0.09, 
 04/01/02, 09:00,   0.3,  78,   1.5,   2.2,   3.5,   0.0,  0.66, 
 04/01/02, 10:00,   1.7,  72,   1.5,   2.2,   3.6,   0.0,  1.12, 
 04/01/02, 11:00,   2.3,  72,   1.6,   2.2,   3.6,   0.0,  1.53, 
 04/01/02, 12:00,   2.6,  70,   1.6,   2.2,   3.6,   0.0,  1.53, 
 04/01/02, 13:00,   1.6,  70,   1.6,   2.2,   3.5,   0.0,  0.95, 
 04/01/02, 14:00,   1.6,  63,   1.5,   2.2,   3.5,   0.0,  0.77, 
 04/01/02, 15:00,   1.7,  62,   1.6,   2.2,   3.5,   0.0,  0.65, 
 04/01/02, 16:00,   1.0,  65,   1.6,   2.2,   3.5,   0.0,  0.33, 
 04/01/02, 17:00,  -0.4,  77,   1.5,   2.2,   3.5,   0.0,  0.04, 
 04/01/02, 18:00,  -0.4,  80,   1.5,   2.2,   3.5,   0.0,  0.00, 
 04/01/02, 19:00,  -0.7,  88,   1.5,   2.2,   3.5,   0.0,  0.00, 
 04/01/02, 20:00,  -1.0,  92,   1.5,   2.2,   3.5,   0.0,  0.00, 
 04/01/02, 21:00,  -0.9,  88,   1.5,   2.2,   3.5,   0.0,  0.00, 
 04/01/02, 22:00,  -1.5,  98,   1.5,   2.2,   3.5,   0.0,  0.00, 
 04/01/02, 23:00,  -1.6,  97,   1.5,   2.2,   3.5,   0.0,  0.00, 
 04/01/03, 00:00,  -1.4,  97,   1.5,   2.2,   3.5,   0.0,  0.00, 
 04/01/03, 01:00,  -1.9,  97,   1.5,   2.2,   3.5,   0.0,  0.00, 
 04/01/03, 02:00,  -1.8,  96,   1.5,   2.2,   3.5,   0.0,  0.00, 
 04/01/03, 03:00,  -1.8,  94,   1.5,   2.2,   3.5,   0.0,  0.00, 
 04/01/03, 04:00,  -2.0,  99,   1.4,   2.2,   3.5,   0.0,  0.00, 
 04/01/03, 05:00,  -2.2,  95,   1.5,   2.2,   3.5,   0.0,  0.00, 
 04/01/03, 06:00,  -1.9,  91,   1.4,   2.2,   3.5,   0.0,  0.00, 
 04/01/03, 07:00,  -2.2,  93,   1.4,   2.2,   3.5,   0.0,  0.00, 
 04/01/03, 08:00,  -1.7,  93,   1.4,   2.2,   3.5,   0.5,  0.06, 
 04/01/03, 09:00,  -1.6,  95,   1.4,   2.2,   3.5,   0.0,  0.27, 
 04/01/03, 10:00,  -1.5,  93,   1.4,   2.2,   3.5,   0.0,  0.20, 
 04/01/03, 11:00,  -1.0,  90,   1.4,   2.1,   3.5,   0.0,  0.50, 
 04/01/03, 12:00,  -0.8,  91,   1.4,   2.2,   3.5,   0.5,  0.72, 
 04/01/03, 13:00,  -0.9,  89,   1.4,   2.1,   3.5,   0.0,  0.63, 
 04/01/03, 14:00,  -0.6,  82,   1.5,   2.1,   3.5,   0.0,  1.25, 
 04/01/03, 15:00,  -1.0,  75,   1.5,   2.1,   3.5,   0.0,  0.68, 
 04/01/03, 16:00,  -1.2,  80,   1.5,   2.1,   3.5,   0.0,  0.43, 
 04/01/03, 17:00,  -2.0,  79,   1.4,   2.1,   3.5,   0.0,  0.13, 
 04/01/03, 18:00,  -2.6,  89,   1.4,   2.1,   3.5,   0.0,  0.00, 
 04/01/03, 19:00,  -2.5,  86,   1.4,   2.1,   3.5,   0.0,  0.00, 
 04/01/03, 20:00,  -2.6,  91,   1.4,   2.1,   3.5,   0.5,  0.00, 
 04/01/03, 21:00,  -2.5,  92,   1.4,   2.1,   3.5,   0.0,  0.00, 
 04/01/03, 22:00,  -2.6,  91,   1.4,   2.1,   3.5,   0.5,  0.00, 
 04/01/03, 23:00,  -2.9,  93,   1.4,   2.1,   3.5,   1.0,  0.00, 
 04/01/04, 00:00,  -3.2,  95,   1.4,   2.1,   3.5,   0.0,  0.00, 
 04/01/04, 01:00,  -3.3,  94,   1.4,   2.1,   3.5,   0.5,  0.00, 
 04/01/04, 02:00,  -3.3,  92,   1.4,   2.1,   3.5,   0.0,  0.00, 
 04/01/04, 03:00,  -3.4,  92,   1.4,   2.1,   3.5,   0.5,  0.00, 
 04/01/04, 04:00,  -3.6,  92,   1.4,   2.1,   3.5,   0.0,  0.00, 
 04/01/04, 05:00,  -4.1,  95,   1.4,   2.1,   3.5,   0.0,  0.00, 
 04/01/04, 06:00,  -4.7,  92,   1.4,   2.1,   3.5,   0.0,  0.00, 
 04/01/04, 07:00,  -4.6,  86,   1.4,   2.1,   3.5,   0.0,  0.00, 
 04/01/04, 08:00,  -5.3,  88,   1.4,   2.1,   3.5,   0.0,  0.10, 
 04/01/04, 09:00,  -3.6,  75,   1.4,   2.1,   3.5,   0.0,  0.84, 
 04/01/04, 10:00,  -2.7,  67,   1.5,   2.1,   3.6,   0.0,  1.38, 
 04/01/04, 11:00,  -2.6,  63,   1.5,   2.1,   3.6,   0.0,  1.83, 
 04/01/04, 12:00,  -2.2,  55,   1.5,   2.1,   3.6,   0.0,  1.88, 
 04/01/04, 13:00,  -1.6,  54,   1.5,   2.1,   3.6,   0.0,  1.92, 
 04/01/04, 14:00,  -2.4,  54,   1.5,   2.1,   3.5,   0.0,  1.41, 
 04/01/04, 15:00,  -2.8,  60,   1.5,   2.1,   3.5,   0.0,  0.79, 
 04/01/04, 16:00,  -3.1,  62,   1.5,   2.1,   3.4,   0.0,  0.27, 
 04/01/04, 17:00,  -3.3,  60,   1.5,   2.1,   3.4,   0.5,  0.04, 
 04/01/04, 18:00,  -4.6,  66,   1.5,   2.1,   3.4,   0.0,  0.00, 
 04/01/04, 19:00,  -6.1,  75,   1.5,   2.1,   3.4,   0.0,  0.00, 
 04/01/04, 20:00,  -4.2,  64,   1.5,   2.1,   3.4,   0.0,  0.00, 
 04/01/04, 21:00,  -3.2,  55,   1.5,   2.1,   3.4,   0.0,  0.00, 
 04/01/04, 22:00,  -4.5,  67,   1.5,   2.1,   3.4,   0.0,  0.00, 
 04/01/04, 23:00,  -3.0,  62,   1.5,   2.1,   3.4,   0.0,  0.00, 
 04/01/05, 00:00,  -2.1,  61,   1.5,   2.1,   3.4,   0.0,  0.00, 
 04/01/05, 01:00,  -3.2,  67,   1.4,   2.1,   3.4,   0.0,  0.00, 
 04/01/05, 02:00,  -3.3,  67,   1.4,   2.1,   3.4,   0.0,  0.00, 
 04/01/05, 03:00,  -4.2,  73,   1.4,   2.1,   3.4,   0.0,  0.00, 
 04/01/05, 04:00,  -3.9,  72,   1.5,   2.1,   3.4,   0.0,  0.00, 
 04/01/05, 05:00,  -3.9,  75,   1.5,   2.1,   3.4,   0.0,  0.00, 
 04/01/05, 06:00,  -4.0,  79,   1.5,   2.1,   3.4,   0.0,  0.00, 
 04/01/05, 07:00,  -5.3,  79,   1.4,   2.1,   3.4,   0.0,  0.00, 
 04/01/05, 08:00,  -4.3,  75,   1.5,   2.1,   3.4,   0.0,  0.07, 
 04/01/05, 09:00,  -2.7,  70,   1.5,   2.1,   3.4,   0.0,  0.82, 
 04/01/05, 10:00,  -2.3,  67,   1.5,   2.1,   3.5,   0.0,  1.44, 
 04/01/05, 11:00,  -2.4,  72,   1.5,   2.2,   3.5,   0.0,  1.59, 
 04/01/05, 12:00,  -2.0,  63,   1.6,   2.2,   3.5,   0.0,  1.55, 
 04/01/05, 13:00,  -1.4,  57,   1.6,   2.2,   3.5,   0.0,  1.55, 
 04/01/05, 14:00,  -1.5,  60,   1.6,   2.2,   3.5,   0.0,  1.40, 
 04/01/05, 15:00,  -0.8,  57,   1.6,   2.2,   3.5,   0.0,  1.04, 
 04/01/05, 16:00,  -1.4,  57,   1.6,   2.2,   3.5,   0.0,  0.51, 
 04/01/05, 17:00,  -2.4,  66,   1.6,   2.2,   3.5,   0.0,  0.10, 
 04/01/05, 18:00,  -2.8,  70,   1.6,   2.2,   3.5,   0.0,  0.00, 
 04/01/05, 19:00,  -3.9,  79,   1.6,   2.2,   3.5,   0.0,  0.00, 
 04/01/05, 20:00,  -4.4,  80,   1.6,   2.2,   3.5,   0.0,  0.00, 
 04/01/05, 21:00,  -5.1,  83,   1.6,   2.2,   3.5,   0.0,  0.00, 
 04/01/05, 22:00,  -4.5,  82,   1.6,   2.2,   3.5,   0.0,  0.00, 
 04/01/05, 23:00,  -6.3,  88,   1.6,   2.2,   3.5,   0.0,  0.00, 
 04/01/06, 00:00,  -5.4,  76,   1.6,   2.2,   3.5,   0.0,  0.00, 
 04/01/06, 01:00,  -6.4,  76,   1.6,   2.2,   3.5,   0.0,  0.00, 
 04/01/06, 02:00,  -6.9,  76,   1.5,   2.2,   3.5,   0.0,  0.00, 
 04/01/06, 03:00,  -6.9,  67,   1.6,   2.2,   3.5,   0.0,  0.00, 
 04/01/06, 04:00,  -6.1,  70,   1.6,   2.2,   3.5,   0.0,  0.00, 
 04/01/06, 05:00,  -5.3,  69,   1.6,   2.2,   3.5,   0.0,  0.00, 
 04/01/06, 06:00,  -5.3,  69,   1.6,   2.2,   3.5,   0.0,  0.00, 
 04/01/06, 07:00,  -5.2,  81,   1.6,   2.2,   3.5,   0.0,  0.00, 
 04/01/06, 08:00,  -6.2,  89,   1.6,   2.2,   3.5,   0.0,  0.07, 
 04/01/06, 09:00,  -4.0,  80,   1.6,   2.2,   3.5,   0.0,  0.88, 
 04/01/06, 10:00,  -3.3,  77,   1.6,   2.2,   3.5,   0.5,  1.47, 
 04/01/06, 11:00,  -3.5,  86,   1.6,   2.2,   3.5,   0.0,  1.74, 
 04/01/06, 12:00,  -3.2,  85,   1.6,   2.2,   3.5,   0.0,  1.22, 
 04/01/06, 13:00,  -2.8,  84,   1.6,   2.2,   3.5,   0.0,  0.83, 
 04/01/06, 14:00,  -1.4,  67,   1.6,   2.2,   3.5,   0.0,  1.33, 
 04/01/06, 15:00,  -2.3,  70,   1.6,   2.2,   3.5,   0.0,  0.93, 
 04/01/06, 16:00,  -2.3,  73,   1.7,   2.2,   3.6,   0.0,  0.51, 
 04/01/06, 17:00,  -3.8,  81,   1.7,   2.2,   3.5,   0.0,  0.05, 
 04/01/06, 18:00,  -5.5,  84,   1.6,   2.2,   3.5,   0.0,  0.00, 
 04/01/06, 19:00,  -6.5,  86,   1.6,   2.2,   3.5,   0.0,  0.00, 
 04/01/06, 20:00,  -7.1,  90,   1.6,   2.2,   3.5,   0.0,  0.00, 
 04/01/06, 21:00,  -5.4,  84,   1.6,   2.2,   3.5,   0.0,  0.00, 
 04/01/06, 22:00,  -4.5,  60,   1.5,   2.2,   3.5,   0.0,  0.00, 
 04/01/06, 23:00,  -4.8,  48,   1.5,   2.2,   3.5,   0.0,  0.00, 
 04/01/07, 00:00,  -7.1,  63,   1.4,   2.2,   3.5,   0.0,  0.00, 
 04/01/07, 01:00,  -7.7,  61,   1.3,   2.2,   3.5,   0.0,  0.00, 
 04/01/07, 02:00,  -8.2,  65,   1.3,   2.1,   3.5,   0.0,  0.00, 
 04/01/07, 03:00,  -8.2,  64,   1.2,   2.1,   3.5,   0.0,  0.00, 
 04/01/07, 04:00,  -7.9,  60,   1.2,   2.1,   3.5,   0.0,  0.00, 
 04/01/07, 05:00,  -8.1,  58,   1.2,   2.1,   3.5,   0.0,  0.00, 
 04/01/07, 06:00,  -7.1,  43,   1.0,   2.1,   3.5,   0.0,  0.00, 
 04/01/07, 07:00,  -7.7,  48,   1.1,   2.0,   3.5,   0.0,  0.00, 
 04/01/07, 08:00,  -5.8,  40,   1.0,   2.0,   3.5,   0.0,  0.06, 
 04/01/07, 09:00,  -3.4,  50,   1.0,   2.0,   3.5,   0.0,  0.80, 
 04/01/07, 10:00,   0.0,  34,   1.0,   2.0,   3.4,   0.0,  1.41, 
 04/01/07, 11:00,   0.6,  35,   1.0,   2.0,   3.5,   0.0,  1.85, 
 04/01/07, 12:00,   0.0,  44,   1.0,   1.9,   3.5,   0.0,  1.58, 
 04/01/07, 13:00,  -0.3,  42,   0.9,   1.9,   3.5,   0.0,  0.91, 
 04/01/07, 14:00,   1.0,  50,   0.9,   1.9,   3.5,   0.0,  1.45, 
 04/01/07, 15:00,   0.4,  47,   0.9,   1.9,   3.4,   0.0,  0.63, 
 04/01/07, 16:00,  -0.3,  56,   0.9,   1.9,   3.4,   0.0,  0.36, 
 04/01/07, 17:00,  -1.5,  64,   0.9,   1.8,   3.4,   0.0,  0.00, 
 04/01/07, 18:00,  -2.9,  86,   0.9,   1.8,   3.4,   0.0,  0.00, 
 04/01/07, 19:00,  -3.3,  95,   0.9,   1.8,   3.4,   0.0,  0.00, 
 04/01/07, 20:00,  -3.3,  96,   0.9,   1.8,   3.4,   0.5,  0.00, 
 04/01/07, 21:00,  -2.9,  98,   0.9,   1.8,   3.4,   0.5,  0.00, 
 04/01/07, 22:00,  -3.0,  98,   0.8,   1.8,   3.4,   0.0,  0.00, 
 04/01/07, 23:00,  -3.0,  98,   0.8,   1.8,   3.4,   0.0,  0.00, 
 04/01/08, 00:00,  -3.0,  98,   0.8,   1.8,   3.4,   1.5,  0.00, 
 04/01/08, 01:00,  -3.8,  99,   0.8,   1.8,   3.4,   2.5,  0.00, 
 04/01/08, 02:00,  -4.6,  98,   0.8,   1.7,   3.4,   2.5,  0.00, 
 04/01/08, 03:00,  -5.3,  96,   0.8,   1.7,   3.3,   0.5,  0.00, 
 04/01/08, 04:00,  -6.2,  96,   0.8,   1.7,   3.3,   1.0,  0.00, 
 04/01/08, 05:00,  -7.0,  96,   0.8,   1.7,   3.3,   1.5,  0.00, 
 04/01/08, 06:00,  -8.2,  91,   0.8,   1.7,   3.3,   0.5,  0.00, 
 04/01/08, 07:00,  -8.8,  92,   0.7,   1.7,   3.3,   0.5,  0.00, 
 04/01/08, 08:00,  -9.4,  97,   0.7,   1.6,   3.3,   0.0,  0.01, 
 04/01/08, 09:00,  -9.6,  90,   0.7,   1.7,   3.3,   0.5,  0.17, 
 04/01/08, 10:00,  -9.3,  94,   0.7,   1.7,   3.3,   0.0,  0.57, 
 04/01/08, 11:00,  -9.0,  99,   0.8,   1.7,   3.3,   1.5,  0.65, 
 04/01/08, 12:00,  -8.5,  99,   0.8,   1.7,   3.3,   0.0,  1.12, 
 04/01/08, 13:00,  -8.1,  99,   0.8,   1.7,   3.3,   0.0,  1.32, 
 04/01/08, 14:00,  -8.1,  97,   0.8,   1.7,   3.3,   0.5,  1.32, 
 04/01/08, 15:00,  -8.4,  78,   0.8,   1.7,   3.3,   0.0,  1.07, 
 04/01/08, 16:00,  -8.9,  78,   0.8,   1.7,   3.3,   0.0,  0.40, 
 04/01/08, 17:00,  -9.4,  82,   0.8,   1.7,   3.3,   0.0,  0.09, 
 04/01/08, 18:00, -10.4,  86,   0.8,   1.6,   3.3,   0.0,  0.00, 
 04/01/08, 19:00, -10.0,  84,   0.8,   1.6,   3.3,   0.0,  0.00, 
 04/01/08, 20:00, -11.2,  92,   0.8,   1.6,   3.3,   0.0,  0.00, 
 04/01/08, 21:00, -11.3,  89,   0.8,   1.6,   3.2,   0.0,  0.00, 
 04/01/08, 22:00, -10.2,  84,   0.8,   1.6,   3.2,   0.0,  0.00, 
 04/01/08, 23:00, -10.3,  89,   0.8,   1.6,   3.2,   0.0,  0.00, 
 04/01/09, 00:00, -11.5,  92,   0.8,   1.6,   3.2,   0.0,  0.00, 
 04/01/09, 01:00, -10.7,  91,   0.8,   1.6,   3.2,   0.0,  0.00, 
 04/01/09, 02:00, -10.4,  87,   0.8,   1.6,   3.2,   0.0,  0.00, 
 04/01/09, 03:00, -11.5,  88,   0.7,   1.6,   3.2,   0.0,  0.00, 
 04/01/09, 04:00, -11.5,  88,   0.8,   1.6,   3.2,   0.0,  0.00, 
 04/01/09, 05:00, -12.0,  88,   0.7,   1.6,   3.2,   0.0,  0.00, 
 04/01/09, 06:00, -11.4,  86,   0.7,   1.6,   3.2,   0.0,  0.00, 
 04/01/09, 07:00,  -9.7,  72,   0.7,   1.5,   3.2,   0.0,  0.00, 
 04/01/09, 08:00, -12.6,  87,   0.7,   1.5,   3.1,   0.0,  0.07, 
 04/01/09, 09:00,  -9.0,  98,   0.7,   1.5,   3.2,   0.0,  1.11, 
 04/01/09, 10:00,  -8.3,  99,   0.8,   1.6,   3.2,   0.0,  1.56, 
 04/01/09, 11:00,  -6.8,  90,   0.8,   1.6,   3.2,   0.0,  1.86, 
 04/01/09, 12:00,  -6.2,  82,   0.8,   1.6,   3.2,   0.0,  2.23, 
 04/01/09, 13:00,  -4.6,  79,   0.8,   1.6,   3.2,   0.0,  2.29, 
 04/01/09, 14:00,  -5.4,  86,   0.8,   1.6,   3.2,   0.0,  0.98, 
 04/01/09, 15:00,  -4.7,  81,   0.8,   1.6,   3.2,   0.0,  0.79, 
 04/01/09, 16:00,  -5.4,  87,   0.8,   1.6,   3.2,   0.0,  0.43, 
 04/01/09, 17:00,  -6.6,  87,   0.8,   1.6,   3.2,   0.0,  0.11, 
 04/01/09, 18:00,  -7.1,  87,   0.8,   1.6,   3.2,   0.0,  0.00, 
 04/01/09, 19:00,  -6.7,  74,   0.7,   1.5,   3.1,   0.0,  0.00, 
 04/01/09, 20:00,  -7.3,  64,   0.7,   1.5,   3.1,   0.0,  0.00, 
 04/01/09, 21:00,  -7.3,  67,   0.7,   1.5,   3.1,   0.0,  0.00, 
 04/01/09, 22:00,  -7.6,  67,   0.7,   1.5,   3.1,   0.0,  0.00, 
 04/01/09, 23:00,  -6.5,  54,   0.7,   1.5,   3.1,   0.0,  0.00, 
 04/01/10, 00:00,  -5.9,  47,   0.7,   1.5,   3.1,   0.0,  0.00, 
 04/01/10, 01:00,  -5.6,  44,   0.7,   1.5,   3.1,   0.0,  0.00, 
 04/01/10, 02:00,  -5.7,  43,   0.7,   1.5,   3.1,   0.0,  0.00, 
 04/01/10, 03:00,  -8.3,  54,   0.7,   1.5,   3.1,   0.0,  0.00, 
 04/01/10, 04:00,  -8.3,  52,   0.7,   1.5,   3.1,   0.0,  0.00, 
 04/01/10, 05:00,  -5.9,  33,   0.6,   1.5,   3.1,   0.0,  0.00, 
 04/01/10, 06:00,  -5.6,  29,   0.6,   1.5,   3.1,   0.0,  0.00, 
 04/01/10, 07:00,  -5.2,  38,   0.6,   1.5,   3.1,   0.0,  0.00, 
 04/01/10, 08:00,  -5.1,  36,   0.6,   1.5,   3.1,   0.0,  0.05, 
 04/01/10, 09:00,  -2.4,  36,   0.6,   1.5,   3.1,   0.0,  0.23, 
 04/01/10, 10:00,  -1.5,  58,   0.6,   1.4,   3.1,   0.0,  0.30, 
 04/01/10, 11:00,  -2.1,  68,   0.6,   1.5,   3.1,   0.0,  0.25, 
 04/01/10, 12:00,  -2.6,  73,   0.6,   1.4,   3.1,   0.0,  0.29, 
 04/01/10, 13:00,  -3.7,  83,   0.6,   1.5,   3.1,   0.0,  0.22, 
 04/01/10, 14:00,  -3.5,  83,   0.6,   1.4,   3.1,   0.0,  0.23, 
 04/01/10, 15:00,  -3.1,  86,   0.6,   1.4,   3.1,   0.0,  0.28, 
 04/01/10, 16:00,  -3.4,  92,   0.6,   1.4,   3.1,   0.0,  0.02, 
 04/01/10, 17:00,  -3.7,  94,   0.6,   1.4,   3.1,   0.0,  0.00, 
 04/01/10, 18:00,  -3.5,  95,   0.6,   1.4,   3.1,   0.0,  0.00, 
 04/01/10, 19:00,  -3.5,  97,   0.6,   1.5,   3.1,   0.0,  0.00, 
 04/01/10, 20:00,  -3.4,  97,   0.6,   1.4,   3.1,   0.5,  0.00, 
 04/01/10, 21:00,  -3.5,  97,   0.6,   1.4,   3.0,   0.5,  0.00, 
 04/01/10, 22:00,  -4.7,  93,   0.6,   1.4,   3.0,   1.0,  0.00, 
 04/01/10, 23:00,  -5.5,  89,   0.6,   1.4,   3.0,   0.5,  0.00, 
 04/01/11, 00:00,  -6.9,  90,   0.6,   1.4,   2.9,   0.0,  0.00, 
 04/01/11, 01:00,  -7.5,  89,   0.6,   1.4,   3.0,   0.0,  0.00, 
 04/01/11, 02:00,  -8.3,  87,   0.6,   1.4,   3.0,   0.5,  0.00, 
 04/01/11, 03:00,  -9.1,  88,   0.6,   1.4,   3.0,   0.0,  0.00, 
 04/01/11, 04:00,  -9.2,  86,   0.6,   1.4,   3.0,   0.0,  0.00, 
 04/01/11, 05:00,  -9.3,  86,   0.6,   1.3,   3.0,   0.0,  0.00, 
 04/01/11, 06:00,  -9.5,  88,   0.6,   1.3,   2.9,   0.0,  0.00, 
 04/01/11, 07:00,  -9.8,  87,   0.6,   1.3,   2.9,   0.0,  0.00, 
 04/01/11, 08:00,  -9.8,  86,   0.6,   1.3,   2.9,   0.0,  0.01, 
 04/01/11, 09:00,  -9.0,  85,   0.6,   1.3,   2.9,   0.0,  0.41, 
 04/01/11, 10:00,  -8.1,  77,   0.6,   1.3,   3.0,   0.5,  1.01, 
 04/01/11, 11:00,  -7.5,  78,   0.6,   1.3,   3.0,   0.0,  1.42, 
 04/01/11, 12:00,  -7.6,  73,   0.6,   1.3,   2.9,   0.0,  1.50, 
 04/01/11, 13:00,  -7.0,  69,   0.6,   1.3,   2.9,   0.0,  1.92, 
 04/01/11, 14:00,  -7.4,  74,   0.6,   1.3,   2.9,   0.0,  1.13, 
 04/01/11, 15:00,  -7.4,  77,   0.6,   1.3,   2.9,   0.0,  0.86, 
 04/01/11, 16:00,  -7.6,  69,   0.6,   1.3,   2.9,   0.0,  0.55, 
 04/01/11, 17:00,  -8.5,  70,   0.6,   1.3,   3.0,   0.0,  0.14, 
 04/01/11, 18:00,  -9.5,  83,   0.6,   1.3,   2.9,   0.0,  0.00, 
 04/01/11, 19:00,  -9.9,  88,   0.6,   1.3,   2.9,   0.0,  0.00, 
 04/01/11, 20:00, -10.8,  88,   0.6,   1.3,   2.9,   0.0,  0.00, 
 04/01/11, 21:00, -11.4,  90,   0.6,   1.3,   2.9,   0.0,  0.00, 
 04/01/11, 22:00, -11.3,  88,   0.6,   1.3,   2.9,   0.0,  0.00, 
 04/01/11, 23:00, -10.9,  88,   0.6,   1.3,   2.9,   0.0,  0.00, 
 04/01/12, 00:00, -12.3,  92,   0.6,   1.3,   2.9,   0.0,  0.00, 
 04/01/12, 01:00, -13.4,  89,   0.6,   1.3,   2.9,   0.0,  0.00, 
 04/01/12, 02:00, -12.6,  87,   0.6,   1.3,   2.9,   0.0,  0.00, 
 04/01/12, 03:00, -12.8,  91,   0.6,   1.3,   2.9,   0.0,  0.00, 
 04/01/12, 04:00, -12.8,  91,   0.4,   1.3,   2.8,   0.0,  0.00, 
 04/01/12, 05:00,  -9.8,  72,   0.5,   1.3,   2.8,   0.0,  0.00, 
 04/01/12, 06:00,  -8.9,  58,   0.4,   1.3,   2.8,   0.0,  0.00, 
 04/01/12, 07:00,  -8.5,  48,   0.4,   1.3,   2.8,   0.0,  0.00, 
 04/01/12, 08:00,  -9.3,  53,   0.4,   1.3,   2.8,   0.0,  0.06, 
 04/01/12, 09:00,  -5.3,  46,   0.5,   1.3,   2.8,   0.0,  0.84, 
 04/01/12, 10:00,  -3.0,  45,   0.5,   1.3,   2.8,   0.0,  1.45, 
 04/01/12, 11:00,  -0.4,  35,   0.5,   1.3,   2.9,   0.0,  1.89, 
 04/01/12, 12:00,   0.3,  27,   0.5,   1.3,   2.9,   0.0,  2.15, 
 04/01/12, 13:00,  -0.9,  41,   0.5,   1.3,   2.9,   0.0,  2.14, 
 04/01/12, 14:00,   0.7,  45,   0.5,   1.3,   2.9,   0.0,  1.89, 
 04/01/12, 15:00,   0.4,  47,   0.5,   1.3,   2.9,   0.0,  1.31, 
 04/01/12, 16:00,  -1.0,  59,   0.5,   1.3,   2.9,   0.0,  0.46, 
 04/01/12, 17:00,  -1.7,  66,   0.5,   1.3,   2.9,   0.0,  0.09, 
 04/01/12, 18:00,  -2.2,  66,   0.5,   1.3,   2.9,   0.0,  0.00, 
 04/01/12, 19:00,  -2.2,  67,   0.5,   1.3,   2.8,   0.0,  0.00, 
 04/01/12, 20:00,  -2.7,  71,   0.5,   1.3,   2.8,   0.0,  0.00, 
 04/01/12, 21:00,  -2.3,  67,   0.5,   1.3,   2.8,   0.0,  0.00, 
 04/01/12, 22:00,  -1.9,  60,   0.5,   1.3,   2.8,   0.0,  0.00, 
 04/01/12, 23:00,  -2.0,  65,   0.5,   1.3,   2.8,   0.0,  0.00, 
 04/01/13, 00:00,  -3.0,  88,   0.5,   1.3,   2.8,   0.0,  0.00, 
 04/01/13, 01:00,  -2.8,  92,   0.5,   1.3,   2.8,   0.0,  0.00, 
 04/01/13, 02:00,  -2.8,  97,   0.5,   1.2,   2.8,   1.0,  0.00, 
 04/01/13, 03:00,  -2.5,  99,   0.5,   1.2,   2.8,   1.5,  0.00, 
 04/01/13, 04:00,  -2.5,  99,   0.5,   1.2,   2.9,   2.0,  0.00, 
 04/01/13, 05:00,  -2.8,  96,   0.5,   1.2,   2.8,   0.5,  0.00, 
 04/01/13, 06:00,  -2.6,  85,   0.5,   1.2,   2.8,   0.0,  0.00, 
 04/01/13, 07:00,  -3.5,  84,   0.4,   1.2,   2.8,   0.0,  0.00, 
 04/01/13, 08:00,  -3.6,  87,   0.5,   1.2,   2.8,   0.0,  0.01, 
 04/01/13, 09:00,  -3.2,  89,   0.5,   1.2,   2.8,   0.0,  0.09, 
 04/01/13, 10:00,  -3.1,  86,   0.5,   1.2,   2.8,   0.0,  0.27, 
 04/01/13, 11:00,  -3.7,  95,   0.5,   1.2,   2.9,   0.5,  0.24, 
 04/01/13, 12:00,  -3.7,  87,   0.5,   1.2,   2.9,   1.0,  0.49, 
 04/01/13, 13:00,  -4.7,  89,   0.5,   1.2,   2.9,   0.0,  0.35, 
 04/01/13, 14:00,  -6.2,  86,   0.5,   1.2,   2.9,   0.0,  0.34, 
 04/01/13, 15:00,  -7.0,  93,   0.5,   1.3,   2.9,   1.0,  0.25, 
 04/01/13, 16:00,  -7.0,  95,   0.5,   1.2,   2.9,   3.5,  0.04, 
 04/01/13, 17:00,  -7.1,  96,   0.5,   1.2,   2.8,   4.0,  0.00, 
 04/01/13, 18:00,  -6.6,  96,   0.5,   1.2,   2.8,   4.0,  0.00, 
 04/01/13, 19:00,  -7.1,  99,   0.5,   1.2,   2.8,   4.0,  0.00, 
 04/01/13, 20:00,  -7.3,  99,   0.5,   1.2,   2.8,   5.5,  0.00, 
 04/01/13, 21:00,  -7.5,  97,   0.5,   1.2,   2.8,   2.5,  0.00, 
 04/01/13, 22:00,  -7.6,  97,   0.5,   1.2,   2.8,   2.5,  0.00, 
 04/01/13, 23:00,  -7.9,  96,   0.5,   1.2,   2.8,   1.5,  0.00, 
 04/01/14, 00:00,  -8.4,  96,   0.5,   1.2,   2.8,   1.5,  0.00, 
 04/01/14, 01:00,  -8.7,  95,   0.5,   1.2,   2.8,   0.5,  0.00, 
 04/01/14, 02:00,  -9.2,  93,   0.5,   1.2,   2.8,   1.0,  0.00, 
 04/01/14, 03:00, -10.0,  91,   0.5,   1.2,   2.7,   1.0,  0.00, 
 04/01/14, 04:00,  -9.9,  93,   0.5,   1.2,   2.7,   1.0,  0.00, 
 04/01/14, 05:00, -10.1,  93,   0.5,   1.2,   2.8,   1.5,  0.00, 
 04/01/14, 06:00, -10.3,  94,   0.5,   1.2,   2.8,   1.5,  0.00, 
 04/01/14, 07:00, -10.5,  92,   0.5,   1.2,   2.8,   1.5,  0.00, 
 04/01/14, 08:00, -10.4,  95,   0.5,   1.2,   2.7,   0.5,  0.00, 
 04/01/14, 09:00, -10.1,  93,   0.5,   1.2,   2.7,   0.5,  0.19, 
 04/01/14, 10:00,  -9.7,  95,   0.5,   1.2,   2.7,   1.0,  0.30, 
 04/01/14, 11:00,  -9.6,  94,   0.5,   1.2,   2.7,   0.5,  0.31, 
 04/01/14, 12:00,  -9.5,  99,   0.5,   1.2,   2.7,   2.0,  0.36, 
 04/01/14, 13:00,  -8.6,  99,   0.5,   1.2,   2.7,   4.5,  0.34, 
 04/01/14, 14:00,  -8.8,  99,   0.5,   1.2,   2.7,   0.5,  0.41, 
 04/01/14, 15:00,  -9.0,  99,   0.5,   1.2,   2.7,   1.0,  0.36, 
 04/01/14, 16:00,  -8.9,  99,   0.5,   1.2,   2.7,   0.5,  0.42, 
 04/01/14, 17:00,  -9.6,  99,   0.5,   1.2,   2.7,   0.0,  0.13, 
 04/01/14, 18:00, -10.1,  99,   0.5,   1.2,   2.7,   0.0,  0.00, 
 04/01/14, 19:00, -10.2,  99,   0.5,   1.2,   2.7,   0.5,  0.00, 
 04/01/14, 20:00, -10.1,  98,   0.5,   1.2,   2.7,   0.5,  0.00, 
 04/01/14, 21:00, -10.3,  98,   0.5,   1.2,   2.7,   0.0,  0.00, 
 04/01/14, 22:00, -10.2,  98,   0.4,   1.2,   2.7,   0.0,  0.00, 
 04/01/14, 23:00, -10.2,  98,   0.5,   1.2,   2.7,   0.5,  0.00, 
 04/01/15, 00:00, -10.3,  97,   0.4,   1.2,   2.7,   0.0,  0.00, 
 04/01/15, 01:00, -10.3,  97,   0.4,   1.2,   2.7,   0.0,  0.00, 
 04/01/15, 02:00, -10.2,  97,   0.4,   1.2,   2.7,   0.5,  0.00, 
 04/01/15, 03:00, -10.2,  97,   0.4,   1.2,   2.7,   0.0,  0.00, 
 04/01/15, 04:00, -10.1,  98,   0.4,   1.2,   2.7,   0.0,  0.00, 
 04/01/15, 05:00, -10.1,  98,   0.4,   1.2,   2.7,   0.0,  0.00, 
 04/01/15, 06:00, -10.1,  99,   0.4,   1.2,   2.7,   0.0,  0.00, 
 04/01/15, 07:00, -10.0,  98,   0.4,   1.2,   2.7,   0.5,  0.00, 
 04/01/15, 08:00, -10.0,  99,   0.4,   1.2,   2.7,   0.0,  0.03, 
 04/01/15, 09:00,  -9.6,  99,   0.4,   1.2,   2.7,   0.0,  0.29, 
 04/01/15, 10:00,  -9.0,  99,   0.4,   1.2,   2.7,   0.0,  0.66, 
 04/01/15, 11:00,  -8.4,  99,   0.5,   1.2,   2.7,   0.0,  1.16, 
 04/01/15, 12:00,  -8.2,  99,   0.5,   1.2,   2.8,   0.0,  1.21, 
 04/01/15, 13:00,  -7.9,  99,   0.5,   1.2,   2.8,   0.0,  1.75, 
 04/01/15, 14:00,  -7.7,  99,   0.5,   1.2,   2.8,   0.0,  1.23, 
 04/01/15, 15:00,  -7.8,  99,   0.5,   1.3,   2.8,   0.0,  0.93, 
 04/01/15, 16:00,  -7.9,  99,   0.5,   1.2,   2.8,   0.5,  0.53, 
 04/01/15, 17:00,  -8.3,  99,   0.5,   1.2,   2.8,   0.0,  0.10, 
 04/01/15, 18:00,  -8.8,  98,   0.5,   1.2,   2.8,   0.0,  0.00, 
 04/01/15, 19:00,  -8.8,  96,   0.5,   1.2,   2.8,   0.5,  0.00, 
 04/01/15, 20:00,  -9.3,  96,   0.5,   1.2,   2.8,   0.0,  0.00, 
 04/01/15, 21:00,  -9.6,  96,   0.5,   1.2,   2.8,   0.0,  0.00, 
 04/01/15, 22:00, -10.0,  94,   0.5,   1.2,   2.7,   0.5,  0.00, 
 04/01/15, 23:00, -10.2,  95,   0.5,   1.2,   2.6,   0.0,  0.00, 
 04/01/16, 00:00, -10.4,  94,   0.5,   1.2,   2.7,   0.0,  0.00, 
 04/01/16, 01:00, -10.8,  93,   0.5,   1.2,   2.6,   0.0,  0.00, 